SIRION PATHFINDER-2 (43759 NORAD) Tracking and Keplerian Element Data

This shows tracking and keplerian element data for the satellite.

Feedback or suggestion? Click here.




ElementValue
Catalog43759
NameSIRION PATHFINDER-2
Epoch Orbit38553
Epoch Day354.08971718
Epoch Year2025
RAAN42.3898
Inclination97.4532
Eccentricity0.0008803
Argument of Perigee190.5294
Mean Anonmoly169.5754
Mean Motion15.12410713
Decay Rate4.509E-05
L11 43759U 18099B 25354.08971718 .00004509 00000+0 26309-3 0 9995
L22 43759 97.4532 42.3898 0008803 190.5294 169.5754 15.12410713385539



Live tracking and technical data element details for SIRION PATHFINDER-2 (NORAD 43759). SIRION PATHFINDER-2 can be tracked NOW for your location showing map with azimuth and elevation plus other details from your city location.







IsCatalogInMostPopularTable: catalog: 43759, numindb: 598
Update: records affected: 1



GetName: 43759 SIRION PATHFINDER-2

Hit Count: updated at: Mon, 18 May 2026 09:01:24 GMT